Date String (YYYY-MM-DD hh:mm:ss) UTC,Instrument flags,Ambient pressure (hPa),Sample flow (lpm),Bypass flow (lpm),Sample temperature (°C),Ambient temperature (°C),ASC tube jacket temperature (°C),LED temperature (°C),Box temperature (°C),Sample RH (%),Span deviation,Mass concentration (μg/m³),Mass concentration (μg/m³),Mass concentration (μg/m³)
DateTimeUTC,F1_M11,P_M11,Q1_M11,Q2_M11,T1_M11,T2_M11,T3_M11,T4_M11,T5_M11,U1_M11,ZSPAN_M11,X0_M11,X2_M11,X1_M11
2022-02-12 13:00:00,,0833.5,5.00,0.00,22.0,21.6,00.0,31.0,23.6,06.9,0000.0,0002.57,0001.54,0001.38
2022-02-12 13:01:00,,0833.5,5.01,0.00,21.9,21.4,00.0,31.0,23.5,06.8,0000.0,0003.08,0001.50,0001.37
2022-02-12 13:02:00,,0833.4,4.99,0.00,21.8,21.2,00.0,31.0,23.3,06.8,0000.0,0003.09,0001.51,0001.37
2022-02-12 13:03:00,,0833.5,5.01,0.00,21.8,21.0,00.0,30.9,23.3,06.9,0000.0,0003.01,0001.48,0001.37
2022-02-12 13:04:00,,0833.4,5.00,0.00,21.8,21.4,00.0,30.9,23.4,06.9,0000.0,0002.96,0001.47,0001.37
2022-02-12 13:05:00,,0833.4,4.98,0.00,21.9,22.2,00.0,31.0,23.7,06.9,0000.0,0002.96,0001.47,0001.38
2022-02-12 13:06:00,,0833.5,5.01,0.00,22.1,22.9,00.0,31.0,24.0,06.8,0000.0,0002.93,0001.46,0001.37
2022-02-12 13:07:00,,0833.5,4.99,0.00,22.2,23.0,00.0,31.1,24.1,06.7,0000.0,0002.93,0001.45,0001.36
2022-02-12 13:08:00,,0833.5,5.00,0.00,22.2,22.6,00.0,31.1,24.0,06.7,0000.0,0002.92,0001.44,0001.35
2022-02-12 13:09:00,,0833.5,5.00,0.00,22.2,22.3,00.0,31.1,23.9,06.7,0000.0,0003.09,0001.44,0001.35
2022-02-12 13:10:00,,0833.4,5.00,0.00,22.1,21.9,00.0,31.1,23.8,06.7,0000.0,0003.56,0001.43,0001.34
2022-02-12 13:11:00,,0833.4,4.99,0.00,22.0,21.7,00.0,31.0,23.6,06.8,0000.0,0003.18,0001.47,0001.34
2022-02-12 13:12:00,,0833.4,5.01,0.00,22.0,21.4,00.0,31.0,23.5,06.8,0000.0,0002.98,0001.49,0001.36
2022-02-12 13:13:00,,0833.4,4.99,0.00,21.9,21.3,00.0,31.0,23.4,06.8,0000.0,0003.80,0001.51,0001.37
2022-02-12 13:14:00,,0833.4,5.02,0.00,21.8,21.1,00.0,31.0,23.4,06.8,0000.0,0003.82,0001.52,0001.37
2022-02-12 13:15:00,,0833.4,4.99,0.00,21.8,21.0,00.0,30.9,23.3,06.8,0000.0,0003.83,0001.51,0001.36
2022-02-12 13:16:00,,0833.5,5.01,0.00,21.8,21.2,00.0,30.9,23.3,06.8,0000.0,0003.82,0001.49,0001.34
2022-02-12 13:17:00,,0833.5,5.01,0.00,21.9,22.0,00.0,31.0,23.6,06.9,0000.0,0003.81,0001.49,0001.34
2022-02-12 13:18:00,,0833.4,5.00,0.00,22.0,22.7,00.0,31.0,23.9,06.9,0000.0,0003.93,0001.53,0001.37
2022-02-12 13:19:00,,0833.5,5.00,0.00,22.2,23.1,00.0,31.0,24.1,06.8,0000.0,0004.18,0001.59,0001.39
2022-02-12 13:20:00,,0833.5,4.99,0.00,22.2,22.8,00.0,31.1,24.1,06.8,0000.0,0004.12,0001.60,0001.39
2022-02-12 13:21:00,,0833.5,5.01,0.00,22.2,22.5,00.0,31.1,24.0,06.7,0000.0,0003.61,0001.63,0001.40
2022-02-12 13:22:00,,0833.4,5.00,0.00,22.2,22.2,00.0,31.1,23.9,06.7,0000.0,0003.50,0001.60,0001.40
2022-02-12 13:23:00,,0833.4,4.99,0.00,22.1,21.9,00.0,31.1,23.8,06.7,0000.0,0003.28,0001.59,0001.40
2022-02-12 13:24:00,,0833.5,5.01,0.00,22.0,21.6,00.0,31.0,23.7,06.7,0000.0,0002.27,0001.58,0001.40
2022-02-12 13:25:00,,0833.4,5.00,0.00,22.0,21.4,00.0,31.0,23.6,06.7,0000.0,0002.24,0001.58,0001.40
2022-02-12 13:26:00,,0833.4,5.00,0.00,21.9,21.3,00.0,31.0,23.5,06.7,0000.0,0002.23,0001.58,0001.40
2022-02-12 13:27:00,,0833.4,5.00,0.00,21.9,21.1,00.0,31.0,23.4,06.7,0000.0,0002.20,0001.58,0001.42
2022-02-12 13:28:00,,0833.4,4.99,0.00,21.8,21.0,00.0,31.0,23.3,06.8,0000.0,0002.21,0001.58,0001.42
2022-02-12 13:29:00,,0833.5,5.01,0.00,21.8,21.4,00.0,31.0,23.4,06.7,0000.0,0002.17,0001.56,0001.41
2022-02-12 13:30:00,,0833.5,5.00,0.00,21.9,22.1,00.0,31.0,23.7,06.7,0000.0,0001.99,0001.54,0001.40
2022-02-12 13:31:00,,0833.5,5.00,0.00,22.1,22.9,00.0,31.0,24.0,06.6,0000.0,0001.96,0001.52,0001.39
2022-02-12 13:32:00,,0833.5,5.00,0.00,22.2,23.1,00.0,31.1,24.1,06.6,0000.0,0001.97,0001.52,0001.39
2022-02-12 13:33:00,,0833.5,5.01,0.00,22.2,22.7,00.0,31.1,24.1,06.6,0000.0,0002.02,0001.54,0001.39
2022-02-12 13:34:00,,0833.5,5.00,0.00,22.2,22.4,00.0,31.1,24.0,06.6,0000.0,0001.99,0001.54,0001.40
2022-02-12 13:35:00,,0833.5,4.99,0.00,22.1,22.1,00.0,31.1,23.9,06.6,0000.0,0001.97,0001.52,0001.39
2022-02-12 13:36:00,,0833.5,4.99,0.00,22.1,21.8,00.0,31.1,23.7,06.6,0000.0,0002.06,0001.55,0001.39
2022-02-12 13:37:00,,0833.5,4.99,0.00,22.0,21.5,00.0,31.0,23.6,06.6,0000.0,0002.08,0001.55,0001.38
2022-02-12 13:38:00,,0833.6,5.00,0.00,21.9,21.4,00.0,31.0,23.5,06.7,0000.0,0002.06,0001.55,0001.39
2022-02-12 13:39:00,,0833.6,5.01,0.00,21.9,21.2,00.0,31.0,23.4,06.7,0000.0,0002.08,0001.57,0001.39
2022-02-12 13:40:00,,0833.5,5.00,0.00,21.8,21.1,00.0,31.0,23.4,06.7,0000.0,0002.04,0001.56,0001.40
2022-02-12 13:41:00,,0833.5,4.99,0.00,21.8,21.2,00.0,31.0,23.4,06.7,0000.0,0001.99,0001.55,0001.40
2022-02-12 13:42:00,,0833.6,5.01,0.00,21.9,22.0,00.0,31.0,23.6,06.8,0000.0,0002.02,0001.56,0001.40
2022-02-12 13:43:00,,0833.6,5.01,0.00,22.1,22.7,00.0,31.0,23.9,06.7,0000.0,0002.00,0001.56,0001.40
2022-02-12 13:44:00,,0833.6,5.00,0.00,22.2,23.1,00.0,31.1,24.1,06.7,0000.0,0001.95,0001.54,0001.40
2022-02-12 13:45:00,,0833.5,5.01,0.00,22.2,22.9,00.0,31.1,24.1,06.5,0000.0,0001.95,0001.54,0001.39
2022-02-12 13:46:00,,0833.5,4.98,0.00,22.2,22.5,00.0,31.1,24.0,06.5,0000.0,0002.03,0001.55,0001.38
2022-02-12 13:47:00,,0833.5,5.01,0.00,22.2,22.1,00.0,31.1,23.9,06.5,0000.0,0002.05,0001.54,0001.37
2022-02-12 13:48:00,,0833.5,5.02,0.00,22.1,21.8,00.0,31.1,23.8,06.5,0000.0,0002.08,0001.53,0001.36
2022-02-12 13:49:00,,0833.4,5.00,0.00,22.1,21.6,00.0,31.0,23.7,06.5,0000.0,0002.08,0001.50,0001.32
2022-02-12 13:50:00,,0833.5,4.99,0.00,22.0,21.4,00.0,31.0,23.6,06.6,0000.0,0002.04,0001.47,0001.30
2022-02-12 13:51:00,,0833.5,4.99,0.00,21.9,21.2,00.0,31.0,23.4,06.6,0000.0,0001.99,0001.43,0001.26
2022-02-12 13:52:00,,0833.5,5.01,0.00,21.9,21.1,00.0,31.0,23.4,06.7,0000.0,0001.97,0001.40,0001.24
2022-02-12 13:53:00,,0833.5,4.99,0.00,21.8,21.1,00.0,31.0,23.3,06.7,0000.0,0001.91,0001.37,0001.22
2022-02-12 13:54:00,,0833.5,5.00,0.00,21.9,21.7,00.0,31.0,23.5,06.7,0000.0,0001.90,0001.35,0001.19
2022-02-12 13:55:00,,0833.5,5.01,0.00,22.0,22.5,00.0,31.0,23.8,06.6,0000.0,0001.93,0001.35,0001.17
2022-02-12 13:56:00,,0833.5,5.00,0.00,22.2,23.1,00.0,31.1,24.0,06.6,0000.0,0001.96,0001.37,0001.16
2022-02-12 13:57:00,,0833.5,4.99,0.00,22.2,23.0,00.0,31.1,24.1,06.5,0000.0,0002.00,0001.38,0001.15
2022-02-12 13:58:00,,0833.4,5.00,0.00,22.2,22.6,00.0,31.1,24.0,06.5,0000.0,0001.89,0001.37,0001.13
2022-02-12 13:59:00,,0833.4,5.00,0.00,22.2,22.2,00.0,31.1,23.8,06.5,0000.0,0001.83,0001.35,0001.12
